Regional Weather Roundup
Issued by NWS

Home | Current Version | Previous Version | Text Only | Print | Product List | Glossary On
Versions: 1 2 3 4 5 6 7 8 9 10 11 12 13 14 15 16 17 18 19 20 21 22 23 24 25 26 27 28 29 30 31 32 33 34 35 36 37 38 39 40 41 42 43 44 45 46 47 48 49 50
000
ASCA44 KEWX 281320
RWRMX

LATIN AMERICA AND CARIBBEAN REGIONAL WEATHER ROUNDUP
NATIONAL WEATHER SERVICE AUSTIN/SAN ANTONIO TX
700 AM CST SUN DEC 28 2014

NOTE: "FAIR" INDICATED FEW OR NO CLOUDS BELOW 12,000 FEET WITH NO
SIGNIFICANT WEATHER AND/OR OBSTRUCTIONS TO VISIBILITY.

BAJA CALIFORNIA

CITY           SKY/WX    TMP DP  RH WIND       PRES   REMARKS
LA PAZ         CLEAR     54  39  58 NE5       30.13
S.J. DEL CABO  CLEAR     54  45  71 W9        30.12
TIJUANA        CLEAR     43  12  28 CALM      30.26F

NORTHWESTERN MEXICO

CITY           SKY/WX    TMP DP  RH WIND       PRES   REMARKS
CULIACAN       CLEAR     50  46  87 CALM      29.79
DURANGO        CLEAR     37  30  75 NW5       30.26R WCI  34
HERMOSILLO     CLEAR     37  19  48 CALM      30.18S

NORTHEASTERN MEXICO

CITY           SKY/WX    TMP DP  RH WIND       PRES   REMARKS
CHIHUAHUA      MOCLDY    34  34 100 CALM      30.27
MATAMOROS      CLOUDY    48  48 100 NW14      30.21  WCI  43
MONCLOVA       DRIZZLE   39  39 100 E5        30.00  WCI  36
MONTERREY      CLOUDY    45  41  87 NW12      30.22R WCI  39
NUEVO LAREDO   CLOUDY    43  39  87 NW14      30.29  WCI  36
REYNOSA        CLOUDY    46  43  87 N13       30.21  WCI  41
SALTILLO       FOG       45  45 100 N6        30.20  VSB 0   WCI  41
TORREON        MOCLDY    46  30  53 NW28      30.23R WCI  37
CD. VICTORIA   CLOUDY    55  48  76 NW14      30.17

WESTERN MEXICO

CITY           SKY/WX    TMP DP  RH WIND       PRES   REMARKS
AGUASCALIENTES CLOUDY    50  48  93 S5        30.29R WCI  48
COLIMA         PTCLDY    68  63  83 N9        30.05R
DEL BAJIO      CLOUDY    46  43  87 CALM      30.32R
GUADALAJARA    MOCLDY    52  50  93 CALM      30.22
MAZATLAN       CLEAR     52  48  87 W8        30.01S
P. VALLARTA    MOCLDY    66  66 100 N5        29.98R
URUAPAN        CLOUDY    54  50  87 NW6       30.21
ZACATECAS        N/A    N/A N/A N/A MISG        N/A

CENTRAL MEXICO

CITY           SKY/WX    TMP DP  RH WIND       PRES   REMARKS
CUERNAVACA       N/A    N/A N/A N/A MISG        N/A
MEXICO CITY    PTCLDY    52  43  71 SW2       30.35R
MORELIA        MOCLDY    45  43  93 CALM      30.27
POZA RICA      FOG       63  61  94 MISG      30.10  VSB 1
PUEBLA         MOCLDY    43  39  87 NW5       30.34  WCI  40
QUERETARO      MOCLDY    48  41  76 SW5       30.31S WCI  46
S. LUIS POTOSI MOCLDY    54  39  58 SE5       30.23R
TAMPICO        PTCLDY    64  59  82 N23G35    30.08R
TOLUCA         FOG       45  43  93 CALM      30.44R VSB 1/4

SOUTHERN MEXICO

CITY           SKY/WX    TMP DP  RH WIND       PRES   REMARKS
ACAPULCO       PTCLDY    73  68  83 NW6       29.90R
B. DE HUATULCO CLOUDY    68  63  83 CALM      29.96
OAXACA         CLOUDY    50  46  87 N8        30.23F WCI  47
P. ESCONDIDO   PTCLDY    73  70  88 E9        30.04
VERACRUZ       FOG       66  64  94 NW5       30.01R VSB 1
ZIHUATANEJO    MOCLDY    72  66  83 CALM      29.91

YUCATAN PENINSULA

CITY           SKY/WX    TMP DP  RH WIND       PRES   REMARKS
CAMPECHE       PTCLDY    73  72  94 SE5       29.98R
CANCUN         PTCLDY    77  73  88 E7        30.06R
CHETUMAL       MOCLDY    77  73  88 CALM      30.00
CD. DEL CARMEN PTCLDY    75  72  88 E8        29.97
COZUMEL        PTCLDY    68  68 100 E3        30.05R
MERIDA         FOG       72  72 100 E8        30.03R VSB 1
MINATITLAN     FOG       66  66 100 CALM      29.96  VSB 1
TAPACHULA      PTCLDY    73  70  88 CALM      29.94R
TUX. GUTIERREZ PTCLDY    55  55 100 CALM      30.04R FOG
VILLAHERMOSA   FOG       68  68 100 SW7       29.99R VSB 1/16

CENTRAL AMERICA

CITY           SKY/WX    TMP DP  RH WIND       PRES   REMARKS
BELIZE CITY    PTCLDY    77  75  94 E3        29.99R
MANAGUA        MOSUNNY   75  70  83 E5        29.89S

CARIBBEAN

CITY           SKY/WX    TMP DP  RH WIND       PRES   REMARKS
ARUBA          MOSUNNY   79  75  89 NE14      29.97R
CURACAO        MOSUNNY   82  73  74 E14       30.00R
KINGSTON       MOSUNNY   81  72  74 NW3         N/A
NASSAU         MOSUNNY   73  70  88 CALM      30.16R
SAN JUAN       PTSUNNY   75  72  88 SE5       30.09R
SANTO DOMINGO  MOSUNNY   73  70  88 NE6       30.06S
ST. CROIX      PTSUNNY   81  70  69 NE7       30.08R
ST. KITTS      PTSUNNY   82  72  69 E13       30.06R
ST. MAARTEN    MOSUNNY   79  70  73 NE7       30.06R

$$




USA.gov is the U.S. government's official web portal to all federal, state and local government web resources and services.